Regional Weather Roundup
Issued by NWS

Home | Current Version | Previous Version | Text Only | Print | Product List | Glossary On
Versions: 1 2 3 4 5 6 7 8 9 10 11 12 13 14 15 16 17 18 19 20 21 22 23 24 25 26 27 28 29 30 31 32 33 34 35 36 37 38 39 40 41 42 43 44 45 46 47 48 49 50
000
ASUS44 KLIX 240013
RWRLA
LOUISIANA WEATHER ROUNDUP
NATIONAL WEATHER SERVICE NEW ORLEANS LA
600 PM CST THU FEB 23 2017

NOTE: "FAIR" INDICATES FEW OR NO CLOUDS BELOW 12,000 FEET WITH NO
      SIGNIFICANT WEATHER AND/OR OBSTRUCTIONS TO VISIBILITY.
      SKY/WX - SKY CONDITION AND SIGNIFICANT WEATHER.
      TMP - AIR TEMPERATURE.    DP   - DEWPOINT TEMPERATURE.
      RH  - RELATIVE HUMIDITY.  PRES - PRESSURE.
      HX  - HEAT INDEX.         WCI  - WIND CHILL INDEX.

*  THESE STATIONS ARE NOT NWS OR FAA STATIONS AND ARE NOT UNDER
   NWS QUALITY CONTROL.

LAZ040-048-061>063-065-066-069-240100-
SOUTHEAST LOUISIANA

CITY           SKY/WX    TMP DP  RH WIND       PRES   REMARKS
N.O. AUDUBON   NOT AVBL
N.O. INTL ARPT PTCLDY    72  61  68 S8        29.77R
6HR MIN TEMP:  72; 6HR MAX TEMP:  77;

N.O. LAKEFRONT CLEAR     74  61  63 S7        29.77S
6HR MIN TEMP:  70; 6HR MAX TEMP:  77;

N.O. DOWNTOWN*   N/A     75  59  57 S8        29.78R
6HR MIN TEMP:  75; 6HR MAX TEMP:  80;

RESERVE*       FAIR      73  56  56 S10       29.76R
6HR MIN TEMP:  73; 6HR MAX TEMP:  82;

SLIDELL        CLEAR     71  62  73 SE5       29.77S
6HR MIN TEMP:  71; 6HR MAX TEMP:  77;

BATON ROUGE    CLEAR     75  54  47 SE9       29.75R
6HR MIN TEMP:  74; 6HR MAX TEMP:  80;

BOOTHVILLE     CLOUDY    67  65  93 E5        29.80S
6HR MIN TEMP:  67; 6HR MAX TEMP:  73;

BELLE CHASSE   PTCLDY    71  61  70 S9        29.77S
6HR MIN TEMP:  71; 6HR MAX TEMP:  77;

BOGALUSA*      FAIR      76  57  52 SW6       29.78R
6HR MIN TEMP:  76; 6HR MAX TEMP:  83;

GALLIANO*      CLEAR     67  57  71 S5        29.79R
6HR MIN TEMP:  67; 6HR MAX TEMP:  76;

NEW ROADS*     FAIR      73  55  54 SW8       29.75R
6HR MIN TEMP:  73; 6HR MAX TEMP:  78;

GONZALES*      FAIR      74  57  56 S7        29.75S
6HR MIN TEMP:  74; 6HR MAX TEMP:  78;

HAMMOND*       CLEAR     70  57  64 SE7       29.76R
HOUMA*         CLEAR     70  61  73 S5        29.78S
PORT FOURCHON* CLEAR     70  63  78 S6        29.79S

$$

LAZ041-044-053-054-240100-
SOUTHWEST LOUISIANA

CITY           SKY/WX    TMP DP  RH WIND       PRES   REMARKS
LAKE CHARLES   MOCLDY    68  62  81 S8        29.74R
6HR MIN TEMP:  68; 6HR MAX TEMP:  74;

LAFAYETTE      CLEAR     72  56  57 S9        29.75F
6HR MIN TEMP:  72; 6HR MAX TEMP:  78;

PATTERSON      CLEAR     67  58  72 SW7       29.78S
6HR MIN TEMP:  67; 6HR MAX TEMP:  77;

SALT POINT       N/A     67  61  81 CALM      29.77S
6HR MIN TEMP:  67; 6HR MAX TEMP:  73;

NEW IBERIA     CLEAR     68  55  63 S9        29.77S
6HR MIN TEMP:  68; 6HR MAX TEMP:  77;

CHENAULT AIRPK NOT AVBL

$$

LAZ027-028-240100-
CENTRAL LOUISIANA

CITY           SKY/WX    TMP DP  RH WIND       PRES   REMARKS
FORT POLK      CLEAR     71  56  60 S14       29.71R
6HR MIN TEMP:  71; 6HR MAX TEMP:  79;

ALEXANDRIA INT CLEAR     71  56  58 S12       29.70R
6HR MIN TEMP:  71; 6HR MAX TEMP:  78;

ALEXANDRIA     CLEAR     73  58  59 S6        29.71R
6HR MIN TEMP:  73; 6HR MAX TEMP:  80;


$$

LAZ001-002-240100-
NORTHWEST LOUISIANA

CITY           SKY/WX    TMP DP  RH WIND       PRES   REMARKS
SHREVEPORT     CLEAR     77  58  51 S21       29.60F
6HR MIN TEMP:  76; 6HR MAX TEMP:  83;

BARKSDALE AFB  CLEAR     75  57  54 S15       29.61F
6HR MIN TEMP:  75; 6HR MAX TEMP:  80;

DTN SHREVEPORT CLEAR     77  57  50 SE14      29.61F
6HR MIN TEMP:  76; 6HR MAX TEMP:  82;


$$

LAZ014-016-240100-
NORTHEAST LOUISIANA

CITY           SKY/WX    TMP DP  RH WIND       PRES   REMARKS
MONROE         CLEAR     75  54  47 S9        29.68R
6HR MIN TEMP:  74; 6HR MAX TEMP:  79;

TALLULAH       CLEAR     74  56  53 SW5       29.70S
6HR MIN TEMP:  74; 6HR MAX TEMP:  81;


$$




USA.gov is the U.S. government's official web portal to all federal, state and local government web resources and services.